Regional Weather Roundup
Issued by NWS

Home | Current Version | Previous Version | Text Only | Print | Product List | Glossary On
Versions: 1 2 3 4 5 6 7 8 9 10 11 12 13 14 15 16 17 18 19 20 21 22 23 24 25 26 27 28 29 30 31 32 33 34 35 36 37 38 39 40 41 42 43 44 45 46 47 48 49 50
000
ASUS42 KFFC 190410
RWRGA
WEATHER ROUNDUP FOR GEORGIA
NATIONAL WEATHER SERVICE PEACHTREE CITY GA
1200 AM EDT THU OCT 19 2017

NOTE: "FAIR" INDICATES FEW OR NO CLOUDS BELOW 12,000 FEET WITH NO
SIGNIFICANT WEATHER AND/OR OBSTRUCTIONS TO VISIBILITY.

* = USE WITH CAUTION. THE STATIONS MARKED WITH AN ASTERISK MAY NOT
REPORT WEATHER SUCH AS PRECIPITATION, FOG, OR THUNDER AND ARE NOT
QUALITY CONTROLLED BY NWS.

THE REMARK "TC" DENOTES TEMPERATURE READING IN DEGREES CELSIUS.

GAZ001>058-190500-
NORTH GEORGIA

CITY           SKY/WX    TMP DP  RH WIND       PRES   REMARKS
ATLANTA        CLEAR     55  45  68 E6        30.29F
ATHENS         CLEAR     47  45  93 NE5       30.31S
CHAMBLEE       CLEAR     51  44  77 E3        30.30F
PEACHTREE CITY CLEAR     46  45  96 CALM      30.30S
ROME           CLEAR     49  49 100 CALM      30.29S
WEST ATLANTA   CLEAR     49  48  97 CALM      30.30S
GAINESVILLE    CLEAR     50  45  83 NE6       30.33S
CARTERSVILLE   CLEAR     49  47  93 CALM      30.31R


CITY           SKY/WX    TMP DP  RH WIND       PRES   REMARKS
DALTON*        CLEAR     46  46 100 CALM      30.31S
LAWRENCEVILLE* CLEAR     47  44  90 CALM        N/A
MARIETTA       CLEAR     51  46  83 CALM      30.30R
KENNESAW*      CLEAR     54  47  77 NE3       30.31S
CANTON*        CLEAR     52  50  93 CALM      30.32F
$$

GAZ059>098-102>109-190500-
CENTRAL GEORGIA

CITY           SKY/WX    TMP DP  RH WIND       PRES   REMARKS
AUGUSTA-BUSH   CLEAR     48  45  89 CALM      30.29F
AUGUSTA-DANIEL CLEAR     61  38  42 NE6       30.30F
COLUMBUS       CLEAR     57  45  64 E5        30.27S
MACON          CLEAR     48  46  93 CALM      30.28F
ROBINS AFB     CLEAR     50  48  92 CALM      30.27F


CITY           SKY/WX    TMP DP  RH WIND       PRES   REMARKS
LAGRANGE*      CLEAR     49  48  98 CALM      30.29S
SYLVANIA*      CLEAR     58  51  78 E5        30.29F
MILLEDGEVILLE* CLEAR     55  48  76 E3        30.29F
$$

GAZ099>101-110>166-190500-
SOUTH GEORGIA

CITY           SKY/WX    TMP DP  RH WIND       PRES   REMARKS
SAVANNAH       CLEAR     59  56  89 N7        30.26F
VALDOSTA       CLEAR     63  61  93 CALM      30.23S
ALMA           CLEAR     63  56  78 VRB3      30.24F
ST SIMONS      PTCLDY    71  65  81 NE14      30.20F
FT STEWART     CLEAR     61  56  85 NE6       30.24S
ALBANY         CLEAR     61  45  55 NE6       30.27S
HUNTER AFB     CLEAR     63  57  81 N8        30.23S
MOODY AFB      CLEAR     61  58  90 NE5       30.22F
BRUNSWICK      CLEAR     68  61  77 NE10      30.22F


CITY           SKY/WX    TMP DP  RH WIND       PRES   REMARKS
BAINBRIDGE*    CLEAR     66  57  72 NE7       30.23S
MOULTRIE*      CLEAR     63  54  72 NE3       30.25S
VIDALIA*       CLEAR     59  54  82 NE5       30.27F
WAYCROSS*      CLEAR     64  61  90 NE5       30.23F
DOUGLAS*       CLEAR     61  54  77 NE6       30.26S
$$



USA.gov is the U.S. government's official web portal to all federal, state and local government web resources and services.